�������l�o���
Date,Time,MP-1(��Sv/h),MP-2(��Sv/h),MP-3(��Sv/h),MP-4(��Sv/h),MP-5(��Sv/h),MP-6(��Sv/h),MP-7(��Sv/h),MP-8(��Sv/h),����,����(m/s),���J
2017/11/14,00:00,0.932,1.497,0.947,1.767,1.218,0.505,0.921,0.855,��쐼,1.9,��
2017/11/14,00:10,0.930,1.493,0.947,1.766,1.216,0.506,0.919,0.855,��,1.1,��
2017/11/14,00:20,0.931,1.494,0.948,1.768,1.218,0.507,0.921,0.855,��,2.0,��
2017/11/14,00:30,0.931,1.496,0.948,1.766,1.218,0.506,0.919,0.856,��,2.6,��
2017/11/14,00:40,0.930,1.494,0.947,1.767,1.216,0.505,0.919,0.855,��쓌,2.3,��
2017/11/14,00:50,0.930,1.492,0.946,1.767,1.217,0.506,0.919,0.854,��,1.2,��
2017/11/14,01:00,0.930,1.495,0.946,1.765,1.218,0.505,0.918,0.855,�쐼,2.3,��
2017/11/14,01:10,0.930,1.492,0.947,1.765,1.217,0.505,0.920,0.854,��쐼,3.3,��
2017/11/14,01:20,0.930,1.494,0.947,1.763,1.219,0.505,0.919,0.855,��,4.7,��
2017/11/14,01:30,0.930,1.493,0.948,1.768,1.219,0.504,0.922,0.855,��,5.7,��
2017/11/14,01:40,0.930,1.496,0.947,1.766,1.217,0.506,0.919,0.854,��쐼,5.0,��
2017/11/14,01:50,0.929,1.493,0.946,1.765,1.216,0.505,0.920,0.855,��쐼,4.0,��
2017/11/14,02:00,0.931,1.493,0.948,1.766,1.219,0.505,0.920,0.855,��쐼,5.1,��
2017/11/14,02:10,0.928,1.496,0.949,1.764,1.217,0.504,0.919,0.854,�쐼,4.0,��
2017/11/14,02:20,0.929,1.493,0.947,1.765,1.219,0.505,0.921,0.854,�쐼,4.7,��
2017/11/14,02:30,0.931,1.494,0.948,1.769,1.218,0.506,0.919,0.856,��쐼,4.9,��
2017/11/14,02:40,0.930,1.492,0.949,1.765,1.216,0.506,0.920,0.854,���쐼,2.3,��
2017/11/14,02:50,0.930,1.494,0.947,1.765,1.218,0.503,0.918,0.853,���k��,2.5,��
2017/11/14,03:00,0.929,1.493,0.950,1.762,1.218,0.505,0.920,0.854,���k��,2.0,��
2017/11/14,03:10,0.931,1.492,0.949,1.763,1.216,0.505,0.920,0.856,-,CALM,��
2017/11/14,03:20,0.929,1.493,0.950,1.768,1.216,0.505,0.920,0.855,��쓌,2.0,��
2017/11/14,03:30,0.933,1.493,0.947,1.762,1.218,0.505,0.920,0.856,��쓌,2.3,��
2017/11/14,03:40,0.931,1.494,0.947,1.765,1.216,0.504,0.919,0.856,��,2.6,��
2017/11/14,03:50,0.932,1.492,0.947,1.764,1.216,0.505,0.920,0.855,��쐼,3.5,��
2017/11/14,04:00,0.931,1.491,0.946,1.763,1.217,0.504,0.918,0.854,��쐼,5.2,��
2017/11/14,04:10,0.931,1.493,0.948,1.765,1.215,0.503,0.920,0.856,��쐼,4.7,��
2017/11/14,04:20,0.932,1.493,0.948,1.767,1.217,0.506,0.921,0.855,��쐼,4.3,��
2017/11/14,04:30,0.932,1.494,0.949,1.768,1.217,0.505,0.919,0.855,�쐼,3.5,��
2017/11/14,04:40,0.931,1.493,0.947,1.766,1.217,0.506,0.919,0.856,�쐼,3.6,��
2017/11/14,04:50,0.931,1.492,0.947,1.766,1.217,0.504,0.920,0.856,�쐼,3.7,��
2017/11/14,05:00,0.930,1.492,0.944,1.765,1.217,0.506,0.919,0.854,��쐼,3.0,��
2017/11/14,05:10,0.931,1.491,0.948,1.767,1.217,0.506,0.922,0.854,��쐼,3.0,��
2017/11/14,05:20,0.933,1.491,0.947,1.765,1.216,0.505,0.919,0.856,��쐼,2.3,��
2017/11/14,05:30,0.932,1.494,0.946,1.768,1.215,0.505,0.920,0.854,���쐼,2.6,��
2017/11/14,05:40,0.931,1.492,0.947,1.764,1.217,0.506,0.920,0.855,��,2.2,��
2017/11/14,05:50,0.932,1.493,0.946,1.766,1.215,0.505,0.919,0.854,��,1.5,��
2017/11/14,06:00,0.932,1.494,0.947,1.765,1.217,0.504,0.922,0.855,��,0.9,��
2017/11/14,06:10,0.930,1.493,0.946,1.764,1.217,0.505,0.919,0.855,��,1.5,��
2017/11/14,06:20,0.930,1.495,0.947,1.766,1.217,0.506,0.919,0.856,��쓌,0.6,��
2017/11/14,06:30,0.930,1.493,0.947,1.766,1.215,0.503,0.920,0.856,-,CALM,��
2017/11/14,06:40,0.932,1.490,0.946,1.766,1.216,0.504,0.919,0.856,���쐼,0.9,��
2017/11/14,06:50,0.930,1.491,0.948,1.765,1.215,0.504,0.919,0.856,�쐼,1.2,��
2017/11/14,07:00,0.930,1.493,0.947,1.766,1.214,0.505,0.920,0.857,�k�k��,1.5,��
2017/11/14,07:10,0.934,1.491,0.948,1.765,1.216,0.505,0.919,0.856,��,0.9,��
2017/11/14,07:20,0.932,1.494,0.946,1.763,1.216,0.505,0.920,0.857,���쐼,1.5,��
2017/11/14,07:30,0.930,1.492,0.947,1.765,1.214,0.505,0.921,0.854,���쐼,1.5,��
2017/11/14,07:40,0.933,1.493,0.947,1.764,1.216,0.505,0.921,0.856,�쐼,1.2,��
2017/11/14,07:50,0.933,1.493,0.947,1.766,1.215,0.505,0.919,0.855,��,0.6,��
2017/11/14,08:00,0.932,1.492,0.948,1.766,1.216,0.505,0.922,0.857,-,CALM,��
2017/11/14,08:10,0.931,1.492,0.947,1.764,1.218,0.505,0.921,0.856,��,1.2,��
2017/11/14,08:20,0.933,1.493,0.947,1.766,1.217,0.504,0.920,0.857,-,CALM,��
2017/11/14,08:30,0.932,1.491,0.946,1.765,1.217,0.505,0.919,0.856,-,CALM,��
2017/11/14,08:40,0.934,1.493,0.948,1.767,1.215,0.506,0.919,0.856,�k�k��,2.6,��
2017/11/14,08:50,0.933,1.494,0.949,1.769,1.216,0.506,0.920,0.856,�k�k��,2.9,��
2017/11/14,09:00,0.932,1.493,0.948,1.769,1.217,0.504,0.921,0.856,�k,2.3,��
2017/11/14,09:10,0.933,1.492,0.947,1.768,1.214,0.505,0.921,0.856,�k��,1.9,��
2017/11/14,09:20,0.932,1.490,0.950,1.766,1.222,0.507,0.921,0.857,���k��,1.9,��
2017/11/14,09:30,0.933,1.489,0.950,1.770,1.219,0.505,0.918,0.857,���k��,1.5,��
2017/11/14,09:40,0.932,1.493,0.949,1.768,1.217,0.506,0.921,0.857,�k��,1.7,��
2017/11/14,09:50,0.932,1.492,0.951,1.768,1.217,0.508,0.920,0.857,���k��,1.7,��
2017/11/14,10:00,0.932,1.494,0.949,1.770,1.217,0.506,0.919,0.856,���k��,2.3,��
2017/11/14,10:10,0.932,1.488,0.947,1.770,1.218,0.507,0.918,0.856,���k��,2.5,��
2017/11/14,10:20,0.933,1.488,0.950,1.766,1.218,0.506,0.919,0.855,��,1.7,��
2017/11/14,10:30,0.931,1.491,0.950,1.768,1.215,0.505,0.919,0.855,��,1.9,��
2017/11/14,10:40,0.931,1.490,0.950,1.771,1.217,0.506,0.919,0.854,���k��,2.0,��
2017/11/14,10:50,0.931,1.489,0.950,1.770,1.214,0.504,0.918,0.857,���쓌,2.5,��
2017/11/14,11:00,0.931,1.490,0.951,1.770,1.217,0.505,0.921,0.855,�쓌,2.6,��
2017/11/14,11:10,0.929,1.489,0.950,1.769,1.214,0.503,0.920,0.857,�쓌,2.6,��
2017/11/14,11:20,0.931,1.489,0.949,1.768,1.215,0.505,0.921,0.854,��쓌,1.9,��
2017/11/14,11:30,0.931,1.490,0.948,1.773,1.216,0.504,0.920,0.855,��쓌,2.3,��
2017/11/14,11:40,0.930,1.488,0.951,1.768,1.218,0.506,0.921,0.854,��쓌,3.2,�L
2017/11/14,11:50,0.932,1.488,0.948,1.771,1.215,0.504,0.918,0.855,��,3.5,�L
2017/11/14,12:00,0.931,1.489,0.948,1.769,1.215,0.504,0.920,0.855,��쓌,3.4,��
2017/11/14,12:10,0.930,1.491,0.948,1.770,1.216,0.504,0.922,0.855,��,3.0,�L
2017/11/14,12:20,0.931,1.493,0.949,1.771,1.216,0.504,0.917,0.854,��쓌,2.3,��
2017/11/14,12:30,0.931,1.493,0.949,1.771,1.215,0.504,0.920,0.856,��,1.7,�L
2017/11/14,12:40,0.933,1.491,0.950,1.769,1.216,0.505,0.921,0.855,��쓌,1.9,��
2017/11/14,12:50,0.933,1.489,0.947,1.771,1.216,0.504,0.919,0.856,�쓌,1.9,��
2017/11/14,13:00,0.934,1.491,0.948,1.772,1.217,0.505,0.920,0.854,�쓌,0.9,��
2017/11/14,13:10,0.932,1.486,0.945,1.768,1.214,0.504,0.921,0.855,���쐼,0.6,��
2017/11/14,13:20,0.933,1.490,0.948,1.771,1.217,0.506,0.920,0.856,-,CALM,��
2017/11/14,13:30,0.930,1.487,0.948,1.772,1.216,0.505,0.920,0.854,-,CALM,��
2017/11/14,13:40,0.931,1.488,0.946,1.770,1.216,0.505,0.920,0.856,�쐼,0.9,��
2017/11/14,13:50,0.931,1.487,0.947,1.771,1.214,0.505,0.921,0.854,�쐼,0.8,��
2017/11/14,14:00,0.932,1.493,0.948,1.770,1.217,0.506,0.920,0.854,���쐼,0.9,�L
2017/11/14,14:10,0.930,1.490,0.948,1.770,1.216,0.506,0.922,0.852,�k��,2.5,�L
2017/11/14,14:20,0.932,1.488,0.950,1.773,1.218,0.508,0.921,0.854,�k�k��,4.8,�L
2017/11/14,14:30,0.930,1.488,0.950,1.772,1.218,0.511,0.921,0.853,�k��,5.1,�L
2017/11/14,14:40,0.934,1.490,0.950,1.769,1.217,0.508,0.921,0.854,���k��,4.8,�L
2017/11/14,14:50,0.931,1.486,0.951,1.772,1.216,0.510,0.920,0.853,��,5.3,�L
2017/11/14,15:00,0.933,1.490,0.951,1.768,1.214,0.511,0.921,0.855,���k��,5.7,�L
2017/11/14,15:10,0.929,1.484,0.954,1.773,1.213,0.510,0.920,0.854,���k��,5.6,�L
2017/11/14,15:20,0.932,1.485,0.953,1.769,1.214,0.512,0.920,0.854,���k��,6.4,�L
2017/11/14,15:30,0.931,1.487,0.953,1.768,1.213,0.511,0.919,0.853,���k��,6.3,�L
2017/11/14,15:40,0.930,1.487,0.954,1.768,1.214,0.511,0.919,0.853,���k��,6.3,�L
2017/11/14,15:50,0.930,1.486,0.953,1.769,1.214,0.509,0.919,0.854,���k��,7.0,�L
2017/11/14,16:00,0.929,1.490,0.950,1.766,1.214,0.510,0.919,0.854,���k��,6.8,�L
2017/11/14,16:10,0.927,1.486,0.949,1.770,1.211,0.509,0.917,0.855,���k��,7.6,�L
2017/11/14,16:20,0.929,1.487,0.950,1.770,1.211,0.511,0.919,0.854,�k��,5.5,�L
2017/11/14,16:30,0.928,1.487,0.947,1.768,1.213,0.507,0.919,0.855,�k��,2.9,�L
2017/11/14,16:40,0.926,1.486,0.948,1.763,1.213,0.508,0.918,0.856,���k��,2.6,�L
2017/11/14,16:50,0.924,1.484,0.947,1.768,1.211,0.506,0.920,0.856,��,3.9,��
2017/11/14,17:00,0.923,1.488,0.946,1.767,1.211,0.507,0.918,0.857,���k��,2.6,��
2017/11/14,17:10,0.924,1.484,0.946,1.763,1.210,0.507,0.918,0.854,���k��,1.5,��
2017/11/14,17:20,0.923,1.486,0.948,1.761,1.210,0.507,0.918,0.854,���k��,2.0,��
2017/11/14,17:30,0.924,1.483,0.946,1.764,1.211,0.506,0.919,0.854,�k��,3.9,��
2017/11/14,17:40,0.920,1.483,0.948,1.762,1.207,0.506,0.919,0.853,���k��,5.3,��
2017/11/14,17:50,0.922,1.484,0.946,1.764,1.210,0.504,0.919,0.854,���k��,5.4,��
2017/11/14,18:00,0.922,1.483,0.946,1.763,1.208,0.505,0.918,0.855,���k��,5.3,��
2017/11/14,18:10,0.922,1.484,0.945,1.759,1.208,0.504,0.919,0.853,���k��,5.3,��
2017/11/14,18:20,0.925,1.483,0.946,1.761,1.209,0.504,0.919,0.855,���k��,5.3,��
2017/11/14,18:30,0.922,1.484,0.946,1.762,1.206,0.504,0.920,0.855,���k��,5.3,��
2017/11/14,18:40,0.924,1.482,0.948,1.764,1.207,0.504,0.919,0.853,���k��,5.2,��
2017/11/14,18:50,0.920,1.481,0.945,1.764,1.207,0.504,0.918,0.852,���k��,4.6,��
2017/11/14,19:00,0.922,1.484,0.946,1.762,1.211,0.505,0.919,0.854,���k��,6.5,��
2017/11/14,19:10,0.923,1.481,0.945,1.761,1.209,0.506,0.917,0.853,��,4.2,��
2017/11/14,19:20,0.922,1.482,0.947,1.764,1.209,0.505,0.918,0.852,���쐼,4.6,��
2017/11/14,19:30,0.924,1.484,0.946,1.763,1.208,0.503,0.919,0.854,���쐼,6.3,��
2017/11/14,19:40,0.924,1.484,0.945,1.761,1.208,0.505,0.919,0.853,��,7.5,��
2017/11/14,19:50,0.925,1.485,0.948,1.764,1.207,0.504,0.919,0.854,��,7.9,��
2017/11/14,20:00,0.927,1.482,0.946,1.765,1.207,0.504,0.918,0.854,��,7.1,��
2017/11/14,20:10,0.923,1.485,0.945,1.764,1.208,0.504,0.920,0.854,��,6.7,��
2017/11/14,20:20,0.925,1.482,0.946,1.763,1.208,0.504,0.918,0.853,��,5.9,��
2017/11/14,20:30,0.924,1.484,0.948,1.763,1.207,0.505,0.919,0.853,���k��,7.1,��
2017/11/14,20:40,0.924,1.487,0.945,1.765,1.207,0.505,0.920,0.854,��,6.8,��
2017/11/14,20:50,0.923,1.484,0.948,1.764,1.208,0.505,0.917,0.856,���k��,5.5,��
2017/11/14,21:00,0.924,1.484,0.946,1.763,1.208,0.505,0.919,0.854,���k��,4.6,��
2017/11/14,21:10,0.924,1.484,0.945,1.766,1.210,0.505,0.918,0.853,��,4.4,��
2017/11/14,21:20,0.926,1.487,0.947,1.764,1.207,0.504,0.918,0.853,���k��,6.3,��
2017/11/14,21:30,0.927,1.485,0.948,1.765,1.207,0.506,0.920,0.853,���k��,4.5,��
2017/11/14,21:40,0.925,1.485,0.946,1.764,1.206,0.505,0.920,0.854,���k��,3.4,��
2017/11/14,21:50,0.928,1.484,0.945,1.765,1.210,0.506,0.919,0.855,���k��,2.6,��
2017/11/14,22:00,0.923,1.488,0.946,1.766,1.208,0.504,0.918,0.854,���k��,3.9,��
2017/11/14,22:10,0.926,1.486,0.947,1.765,1.208,0.507,0.920,0.853,���k��,5.7,��
2017/11/14,22:20,0.925,1.483,0.947,1.765,1.209,0.504,0.923,0.854,���k��,7.6,��
2017/11/14,22:30,0.927,1.487,0.948,1.768,1.209,0.504,0.920,0.853,��,6.4,��
2017/11/14,22:40,0.926,1.486,0.946,1.764,1.207,0.506,0.921,0.856,��,7.6,��
2017/11/14,22:50,0.926,1.487,0.946,1.766,1.209,0.507,0.921,0.854,���k��,6.0,��
2017/11/14,23:00,0.925,1.485,0.945,1.765,1.209,0.505,0.919,0.853,���k��,5.3,��
2017/11/14,23:10,0.925,1.486,0.948,1.765,1.208,0.505,0.919,0.853,��,3.5,��
2017/11/14,23:20,0.924,1.487,0.947,1.766,1.209,0.504,0.920,0.853,���k��,3.0,��
2017/11/14,23:30,0.926,1.483,0.946,1.763,1.208,0.505,0.921,0.854,��,2.6,��
2017/11/14,23:40,0.925,1.488,0.948,1.765,1.208,0.505,0.919,0.855,�k��,2.3,��
2017/11/14,23:50,0.926,1.487,0.946,1.765,1.208,0.505,0.920,0.853,���k��,3.8,��
